SCOUT A DEB, 2226

Orbit data source: Space-Track

SCOUT A DEB, 2226 is space debris in LEO originally from a launch on Wed, 22 Dec 1965 UTC launched from the Air Force Western Test Range (AFWTR). Debris objects in space refer to the collection of defunct objects orbiting the Earth. Examples of debris include non-operational satellites, rocket bodies, and fragments generated from explosions, collisions, or faulty payload assembly.

Loading next visibility...
Identifier
2226, 1965-109D
Orbit
LEO
Country
Flag of USUS
Related business
Manufacturer
Unknown
Mission
Spacecraft
Bus & Motor
Unknown
Mass
Unknown
Launch date (UTC)
1965-12-22 (60 years ago)
Launch vehicle
Unknown
Launch site
Air Force Western Test Range (AFWTR)
Object type
Payload
Rocket body
Debris
Shape & HBR
Unknown shape, 0.1 m
Radar Cross Section
Small (<0.1 m²)

Expand to show TLE details & history
Last TLE update: 4 days ago

TLE from 4 days ago
0 SCOUT A DEB
1 02226U 65109D   26031.77963249  .00000212  00000-0  25054-3 0  9996
2 02226  89.0638 319.8781 0249363  78.3654 284.5369 13.51234824935260
Epoch: 2026-01-31T18:42Z
TLE epoch observation values (Epoch: 2026-01-31T18:42:40.247Z)
Latitude
0.00002°
Longitude
-91.78832°
Altitude
1,028.439 km
Speed
7.358 km/s
True Right ascension
21h 19m 30s
True Declination
0° 00' 00"
Sunlit
Object was in daylight at epoch
Visualization orbit readout
Latitude
Unknown
Longitude
Unknown
Altitude
Unknown
Speed
Unknown
Apparent Right ascension
Unknown
Apparent Declination
Unknown
Sunlit
N/A
Visualization observer readout
Local Sidereal Time
04:37:58
Azimuth
Unknown
Elevation
Unknown
Doppler factor
Unknown
Orbital elements
Apogee altitude
1,250.365 km
Perigee altitude
879.168 km
Semi-major axis
7,442.903 km
Eccentricity
0.02494
Inclination
89.0638°
RAAN
319.8781°
Arg. of periapsis
78.3654°
True anomaly
281.75019°
Mean anomaly
284.5369°
Eccentric anomaly
283.1456°
Mean motion
3.3801 °/min
Orbital period
106.51 mins
BSTAR
0.00025054
Loading maneuver chart data...
Computing Atmospheric mass density...
Loading historical data...
Loading historical data...
Loading historical data...
Loading historical data...
Loading historical data...
Loading historical data...
Loading historical data...

Documentation

Showing up to 5 results
|